Location: Marion Hill
(40.7303°N, 80.2959°W)
Time: 18:44:46
(UTC+00:00)

Cosmos 1953 Rocket - Pass Details

Date: 29 October 2020
Orbit: 605 x 634 km, 82.5° (Epoch: 23 November)

Event Time Altitude Azimuth Distance (km) Brightness Sun altitude
Rises 23:03:04 0° 351° (N) 2,905 7.0 -8.7°
Reaches altitude 10° 23:05:17 10° 350° (N) 1,999 6.2 -9.1°
Maximum altitude 23:09:43 81° 265° (W) 639 3.7 -9.9°
Drops below altitude 10° 23:14:09 10° 177° (S) 2,000 6.3 -10.7°
Sets 23:16:23 0° 177° (S) 2,906 7.1 -11.1°
